カタログに戻る

STARLINK-35383

運用中通信SSO
NORAD 65793·PAYLOAD·🇺🇸 United States

打ち上げ Sep 26, 2025 から Vandenberg Space Force Base

Loading…

次のパス (今後24時間)

TLE

最新Source: CelesTrak SupGP

元期: Sep 15, 2026, 03:02 UTC

1 65793C 25218C   26258.12687500  .00007261  00000+0  22555-3 0  2585
2 65793  97.2849 115.5926 0001619  97.5949 169.5583 15.33414741    11

AllMySatでSTARLINK-35383をリアルタイム追跡

Download on the App Store